CST,Max TemperatureF,Mean TemperatureF,Min TemperatureF,Max Dew PointF,MeanDew PointF,Min DewpointF,Max Humidity, Mean Humidity, Min Humidity, Max Sea Level PressureIn, Mean Sea Level PressureIn, Min Sea Level PressureIn, Max VisibilityMiles, Mean VisibilityMiles, Min VisibilityMiles, Max Wind SpeedMPH, Mean Wind SpeedMPH, Max Gust SpeedMPH,PrecipitationIn, CloudCover, Events, WindDirDegrees
2012-11-1,59,47,34,41,38,35,92,72,51,30.03,29.99,29.95,10,6,3,20,7,23,0.00,1,,12
2012-11-2,56,46,36,37,32,29,92,68,43,30.12,30.01,29.95,10,8,3,16,8,21,0.00,0,,72
2012-11-3,56,41,26,35,31,25,92,68,43,30.26,30.21,30.12,9,7,4,10,3,14,0.00,1,,343
2012-11-4,63,48,32,43,36,30,89,63,36,30.22,30.12,30.02,10,8,4,22,7,26,0.08,5,Rain,255
2012-11-5,45,41,36,43,37,35,92,84,76,30.20,30.14,30.06,9,7,5,26,12,31,T,8,,338
2012-11-6,58,46,33,37,30,24,92,60,28,30.13,30.07,30.00,10,9,6,33,14,39,0.00,1,,300
2012-11-7,56,41,26,32,29,24,85,62,38,30.24,30.13,30.04,10,10,7,12,6,15,0.00,0,,172
2012-11-8,67,52,36,38,33,29,79,55,31,30.02,29.92,29.84,10,10,8,18,7,22,0.00,0,,188
2012-11-9,67,50,33,56,44,31,92,74,56,29.87,29.76,29.60,10,9,6,18,8,23,0.00,0,,60
2012-11-10,78,60,41,57,52,38,84,66,47,29.69,29.55,29.43,10,9,4,48,22,66,0.07,3,Rain-Thunderstorm,199
2012-11-11,40,31,21,36,21,11,96,67,38,30.26,29.96,29.74,10,9,3,26,14,33,T,5,Rain,322
2012-11-12,44,31,17,16,14,13,77,53,29,30.43,30.35,30.26,10,10,10,25,8,30,0.00,0,,282
2012-11-13,58,36,14,29,20,9,80,50,19,30.43,30.35,30.27,10,10,9,17,7,22,0.00,0,,187
2012-11-14,58,44,29,29,25,21,78,52,25,30.35,30.27,30.21,10,10,8,17,7,21,0.00,0,,183
2012-11-15,60,44,28,32,30,26,76,55,33,30.48,30.34,30.20,10,10,9,17,7,22,0.00,3,,360
2012-11-16,58,39,20,35,29,18,100,70,40,30.51,30.41,30.32,10,8,6,16,7,21,0.00,0,,167
2012-11-17,64,49,33,35,32,29,89,62,34,30.32,30.22,30.14,10,9,7,30,14,37,0.00,0,,172
2012-11-18,61,50,38,38,32,27,64,50,36,30.15,30.09,30.02,10,10,10,24,14,30,T,0,Rain,172
2012-11-19,64,48,32,38,35,28,85,62,39,30.18,30.08,30.02,10,9,7,15,7,20,0.00,0,,260
2012-11-20,65,46,26,37,31,25,92,62,31,30.28,30.20,30.14,10,9,7,10,3,13,0.00,0,,163
2012-11-21,73,55,37,46,41,34,79,54,29,30.13,29.98,29.78,10,10,9,32,16,41,0.00,0,,190
2012-11-22,63,48,33,45,37,25,80,60,39,30.30,29.96,29.74,10,10,9,31,12,38,0.00,0,,294
2012-11-23,41,29,16,17,9,3,60,43,26,30.58,30.50,30.34,10,10,10,31,12,40,0.00,0,,320
2012-11-24,49,32,14,26,17,8,74,53,31,30.44,30.11,29.90,10,10,10,24,8,29,0.00,0,,175
2012-11-25,44,36,27,29,26,22,85,69,53,30.18,30.04,29.91,10,9,7,15,8,20,0.00,1,,7
2012-11-26,34,22,9,27,21,6,85,72,58,30.52,30.41,30.19,10,7,2,21,9,25,T,6,Snow,9
2012-11-27,45,27,8,24,16,6,92,69,45,30.52,30.36,30.23,10,9,6,23,6,26,0.00,0,,197
2012-11-28,53,32,11,28,22,9,92,62,32,30.44,30.30,30.12,10,8,5,16,5,20,0.00,0,,167
2012-11-29,57,40,23,36,30,24,100,72,43,30.11,30.01,29.93,10,9,7,9,4,12,0.00,0,,171
2012-11-30,49,37,25,31,27,21,88,69,50,30.14,30.06,29.96,10,6,5,13,3,16,0.00,0,,358